Lid_Strength_Index
14 12 10 10 10 10 12 12 13 12 13 10 9 9 7 7 7 7 7 6 6 5 5 4 4 3 3 3 2 2 3 3 3 1 1 1 1 2 2 2 1 1 2 2
13 12 10 11 10 10 10 10 11 11 11 8 8 7 8 7 7 7 7 6 5 5 5 4 4 4 3 3 3 3 2 2 2 2 2 1 1 1 1 2 2 2 2 2
15 12 12 14 11 10 10 10 10 13 10 8 9 8 8 7 7 7 6 6 5 5 4 4 4 4 4 4 3 3 3 3 3 3 2 3 2 1 1 1 1 2 2 1
14 14 18 12 9 9 9 9 8 9 8 8 8 7 6 6 6 6 6 5 5 4 4 4 4 4 4 4 4 3 4 4 3 3 4 3 2 2 2 1 1 2 2 2
15 16 13 11 10 9 10 10 8 8 7 7 7 7 8 5 5 5 5 4 4 4 4 4 4 4 4 4 4 2 3 2 2 2 2 2 2 2 2 3 4 3 3 3
15 17 18 12 8 7 9 13 7 7 7 8 7 11 8 5 5 5 4 4 4 3 4 3 3 3 3 4 4 4 4 3 2 3 3 3 3 3 3 3 2 2 1 2
14 15 13 9 8 7 13 13 8 7 7 7 9 7 5 5 5 4 4 4 3 3 4 4 4 3 4 4 4 3 3 3 3 3 3 3 3 2 2 2 3 3 4 4
15 16 16 8 8 11 10 8 7 7 7 7 6 6 5 5 5 5 4 4 3 4 4 4 3 3 4 5 4 3 2 2 2 3 2 2 2 3 3 2 3 3 4 4
13 13 9 8 9 7 7 8 7 7 6 6 6 6 5 5 5 5 4 4 3 4 5 4 4 3 4 3 3 4 4 3 2 3 2 1 2 2 3 2 3 3 4 5
12 10 9 7 7 6 6 7 6 5 5 6 6 6 6 5 5 5 4 4 3 4 5 5 4 3 4 3 4 3 3 3 3 4 5 4 5 3 3 3 3 3 4 5
11 9 8 7 7 6 6 5 5 5 5 6 6 6 5 5 5 4 4 4 3 4 5 5 4 4 4 4 3 3 2 3 4 5 6 7 9 8 7 8 8 3 3 5
12 8 8 8 6 5 6 6 5 5 5 6 5 6 5 5 4 4 4 4 4 5 5 4 4 4 3 3 2 3 3 3 5 6 7 6 6 7 10 11 12 12 11 7
8 6 6 6 5 4 5 5 5 5 5 5 5 5 5 5 4 5 4 5 5 5 4 4 4 4 3 3 3 2 2 3 5 6 6 7 6 6 6 8 11 12 12 11
5 6 8 6 7 5 5 4 4 4 4 4 4 4 4 4 6 5 5 4 4 4 4 4 4 4 3 2 2 2 3 5 4 5 5 5 5 4 5 6 7 7 9 10
5 5 5 5 5 5 4 4 5 5 5 5 4 4 4 5 5 5 5 5 4 4 4 4 4 3 3 2 2 2 3 4 4 4 3 4 4 4 5 6 6 7 7 9
5 5 5 6 6 5 5 5 6 5 5 5 5 4 4 4 5 6 5 4 4 4 4 3 3 3 3 3 3 3 3 4 4 4 4 5 4 4 4 4 5 5 5 5
7 8 7 7 6 6 6 5 5 5 5 5 4 4 4 4 4 4 4 4 4 4 3 3 3 3 2 2 3 3 3 4 3 4 4 4 4 4 4 4 3 3 4 4
5 5 5 5 5 6 5 5 4 4 5 4 4 4 4 4 4 5 5 5 5 4 3 3 3 3 3 3 3 3 4 4 4 4 4 4 4 4 4 4 4 4 4 4
6 5 4 4 4 5 5 5 4 4 4 4 4 4 4 4 4 5 6 5 5 4 3 3 2 2 3 3 3 3 3 3 4 4 4 4 4 4 4 4 4 4 4 5
5 4 4 4 4 4 5 4 4 4 3 3 4 4 4 5 5 6 5 4 3 3 3 3 2 3 3 2 1 3 3 3 3 3 4 4 4 4 6 5 4 4 4 5
5 5 5 5 5 4 4 4 4 4 4 3 4 4 4 5 5 6 6 5 4 3 2 3 2 3 3 2 2 4 5 4 4 4 4 4 4 5 6 5 4 3 3 4
6 5 5 4 5 4 4 3 3 4 4 4 3 3 4 6 6 6 4 4 4 5 3 3 3 3 3 2 5 5 5 5 5 5 4 4 4 5 5 4 5 4 4 4
5 4 4 5 5 4 4 4 3 3 4 4 4 4 4 4 4 5 5 4 3 4 3 3 4 4 4 3 4 4 5 5 5 5 4 4 4 5 5 5 4 4 4 5
4 4 4 4 4 4 5 4 3 3 3 3 3 3 3 4 4 3 3 4 4 4 3 3 4 5 5 4 5 4 4 4 4 5 3 7 4 4 5 5 5 4 4 4
4 4 4 4 5 5 4 4 4 4 3 4 4 3 3 3 3 3 2 3 4 4 3 5 5 5 4 4 4 4 3 4 4 3 3 4 5 4 3 4 3 3 3 3
5 4 4 4 4 4 4 4 4 4 4 5 4 3 3 4 4 4 2 3 3 5 3 4 4 4 4 4 3 3 3 4 4 3 3 3 3 3 2 2 3 3 3 3
4 6 4 4 3 3 4 4 4 4 4 4 4 3 2 2 2 2 4 3 4 3 4 4 3 3 3 3 3 4 4 5 6 4 4 3 2 3 3 4 4 4 3 3